Location: Unspecified
(0.0000°N, 0.0000°E)
Time: 16:10:35
(UTC+00:00)

Vanguard 2 Rocket - Pass Details

Date: 20 January 2020
Orbit: 553 x 3327 km, 32.9° (Epoch: 24 February)

Event Time Altitude Azimuth Distance (km) Brightness Sun altitude
Rises 10:20:41 0° 332° (NNW) 4,877 10.3 56.3°
Reaches altitude 10° 10:24:48 10° 348° (NNW) 4,340 10.2 57.1°
Maximum altitude 10:33:45 21° 33° (NNE) 4,306 10.5 58.8°
Drops below altitude 10° 10:45:40 10° 76° (ENE) 5,964 11.4 61.0°
Sets 10:52:49 0° 89° (E) 7,238 11.7 62.2°
